Flag for Australia Weather past 2 weeks in Perth, Western Australia, Australia

Now
52 °F

Clear.


Feels Like: 49 °F
Forecast: 50 / 64 °F
Wind: 8 mph from East

Location: Belmont Perth Airport

Current Time: Aug 4, 2015 at 3:53:04 AM

Latest Report: Aug 4, 2015 at 3:30 AM


Visibility: 10 mi

Pressure: 30.48 "Hg

Humidity: 72%

Dew point: 43 °F

Location of PerthLocation

Historic Weather in Perth — Graph

°F

Perth temperature yesterday

Maximum temperature yesterday: 63 °F (at 11:30 AM)
Minimum temperature yesterday: 39 °F (at 4:30 AM)
Average temperature yesterday: 52 °F

Past Weeks' High & Low Weather Summary

 TemperatureHumidityPressure
High72 °F (Jul 31, 3:30 PM)100% (Jul 20, 2:30 AM)30.57 "Hg (Jul 20, 2:30 AM)
Low34 °F (Jul 24, 6:00 AM)35% (Jul 27, 1:00 PM)29.71 "Hg (Jul 20, 1:30 PM)
Average55 °F76%30.19 "Hg
* Reported Jul 20 2:00 AM — Aug 4 2:30 AM, Perth, Weather by CustomWeather, © 2015

Note: Actual official high and low records may vary slightly from our data, if they occured in-between our weather recording intervals... More about our weather records

Advertising

Perth weather history for previous 24 hours

 ConditionsComfort  
Time TempWeatherWind HumidityBarometerVisibility
2:30 AM
Tue, Aug 4
46 °FClear.2 mph93%30.48 "Hg10 mi
2:00 AM48 °FClear.No wind87%30.48 "Hg10 mi
1:30 AM46 °FClear.6 mph93%30.48 "Hg10 mi
1:00 AM50 °FClear.8 mph82%30.48 "Hg10 mi
12:30 AM48 °FClear.8 mph87%30.48 "Hg10 mi
12:00 AM48 °FClear.7 mph87%30.48 "Hg10 mi
11:30 PM
Mon, Aug 3
50 °FClear.8 mph82%30.51 "Hg10 mi
11:00 PM52 °FClear.7 mph77%30.51 "Hg10 mi
10:30 PM52 °FClear.7 mph72%30.51 "Hg10 mi
10:00 PM52 °FClear.2 mph77%30.51 "Hg10 mi
9:30 PM54 °FClear.6 mph72%30.51 "Hg10 mi
9:00 PM52 °FClear.3 mph77%30.51 "Hg10 mi
8:30 PM52 °FPassing clouds.6 mph77%30.51 "HgN/A
8:00 PM52 °FPassing clouds.7 mph77%30.51 "HgN/A
7:30 PM54 °FPassing clouds.8 mph72%30.51 "HgN/A
7:00 PM55 °FOvercast.8 mph67%30.48 "HgN/A
6:30 PM55 °FOvercast.8 mph67%30.48 "HgN/A
6:00 PM57 °FOvercast.8 mph63%30.48 "HgN/A
5:30 PM59 °FOvercast.8 mph59%30.48 "HgN/A
5:00 PM61 °FOvercast.9 mph52%30.48 "HgN/A
4:30 PM61 °FPartly sunny.8 mph52%30.48 "HgN/A
4:00 PM63 °FPartly sunny.10 mph45%30.48 "HgN/A
3:30 PM63 °FPartly sunny.9 mph45%30.48 "HgN/A
3:00 PM63 °FPartly sunny.8 mph49%30.48 "HgN/A
2:30 PM63 °FPartly sunny.7 mph45%30.48 "HgN/A
2:00 PM63 °FPartly sunny.8 mph42%30.48 "HgN/A
1:30 PM63 °FPartly sunny.13 mph45%30.48 "HgN/A
1:00 PM63 °FPartly sunny.9 mph45%30.51 "HgN/A
12:00 PM63 °FPassing clouds.9 mph42%30.54 "HgN/A
11:30 AM63 °FPassing clouds.8 mph42%30.54 "HgN/A
11:00 AM59 °FSunny.10 mph51%30.54 "Hg10 mi
10:30 AM57 °FSunny.6 mph59%30.57 "Hg10 mi
10:00 AM55 °FSunny.7 mph63%30.57 "Hg10 mi
9:30 AM54 °FSunny.7 mph67%30.57 "Hg10 mi
9:00 AM52 °FSunny.10 mph72%30.57 "Hg10 mi
8:30 AM50 °FSunny.10 mph71%30.57 "Hg10 mi
8:00 AM48 °FSunny.10 mph76%30.57 "Hg10 mi
7:30 AM46 °FSunny.13 mph76%30.54 "Hg10 mi
7:00 AM46 °FSunny.9 mph76%30.54 "Hg10 mi
6:30 AM46 °FSunny.6 mph82%30.54 "Hg10 mi
6:00 AM46 °FClear.8 mph82%30.51 "Hg10 mi
5:30 AM45 °FClear.8 mph81%30.51 "Hg10 mi
5:00 AM43 °FClear.6 mph87%30.51 "Hg10 mi
4:30 AM39 °FClear.3 mph100%30.51 "Hg10 mi
4:00 AM41 °FClear.No wind93%30.51 "Hg10 mi
3:30 AM41 °FClear.2 mph93%30.51 "Hg10 mi
3:00 AM41 °FClear.5 mph93%30.54 "Hg10 mi
Weather by CustomWeather, © 2015

See weather overviewHow to use our weather pages